Theta_e
329 327 328 329 328 323 328 326 324 326 339 340 342 343 343 343 343 343 343 342 343 339 333 333 332 333 334 334 333 333 333 334 333 333 333 335 336 335 334 333 333 332 332 333 333 333 333 332 332
316 326 328 330 326 328 327 326 323 326 342 344 344 343 343 344 343 343 344 343 342 333 333 333 333 334 334 334 334 335 334 335 334 333 331 330 328 326 324 322 321 320 320 324 327 329 333 335 336
316 324 328 327 325 328 328 325 325 334 341 341 344 344 344 343 342 343 341 341 337 334 334 334 335 335 334 335 335 335 336 332 327 322 319 316 315 314 313 312 311 311 311 311 313 314 315 319 327
313 326 326 327 329 326 331 329 330 333 336 342 343 341 343 343 343 342 340 339 339 334 335 335 336 335 336 338 337 335 331 320 316 315 313 311 310 309 309 308 308 308 308 308 309 309 309 309 310
317 326 326 327 328 327 327 329 328 330 334 341 342 341 343 343 342 340 339 338 339 337 337 338 338 338 337 335 334 328 320 316 314 312 310 309 308 308 308 309 309 309 309 310 310 310 310 309 309
323 323 324 329 328 326 328 329 329 331 336 340 342 342 343 343 341 341 340 338 339 337 338 338 338 337 335 333 326 320 316 313 311 310 309 308 308 309 309 309 309 309 308 308 308 308 308 309 310
319 318 322 324 327 327 327 329 329 331 335 340 341 339 344 343 341 340 339 339 338 338 338 338 338 336 334 329 322 316 313 310 310 309 308 308 309 309 309 309 308 307 307 307 306 306 306 306 307
320 318 322 323 328 327 328 326 327 332 335 341 339 339 344 342 341 340 339 339 338 338 338 339 337 335 330 325 318 312 311 310 309 309 309 309 309 309 308 308 307 307 307 307 307 307 307 308 308
319 320 320 323 325 328 327 326 330 334 337 338 340 340 342 341 340 340 340 339 337 337 336 338 334 331 327 323 315 312 311 309 309 309 309 309 309 308 307 307 307 307 306 306 306 306 306 307 309
319 319 321 319 322 327 327 327 332 335 337 339 341 341 342 341 340 340 339 338 338 336 333 332 331 329 326 321 313 312 310 310 309 309 310 309 308 307 308 307 307 306 306 305 305 306 307 308 309
320 321 320 321 320 321 328 327 328 332 332 339 341 342 342 341 340 339 339 338 338 337 334 333 333 331 327 319 313 312 310 310 310 310 309 308 308 308 307 306 306 306 306 305 305 306 308 310 311
321 321 321 321 321 319 324 326 329 326 329 334 340 341 341 341 341 340 339 340 339 338 336 334 334 332 326 315 313 311 310 310 310 310 308 308 308 307 307 307 306 306 306 305 304 305 307 309 310
319 319 321 321 321 320 318 327 323 324 329 330 340 341 341 341 341 340 340 339 338 338 336 334 334 330 323 314 313 311 310 310 311 309 308 308 307 308 309 308 307 306 305 305 304 303 304 305 309
317 319 319 318 317 317 322 323 324 326 332 333 340 341 341 341 341 340 339 339 338 336 335 334 333 328 321 315 313 311 310 311 310 309 308 308 308 308 308 309 307 306 305 305 305 303 302 304 305
318 318 316 317 317 318 323 322 321 329 334 335 340 341 340 340 340 339 339 338 336 336 334 334 332 326 322 315 313 311 311 311 310 309 308 308 308 308 308 309 307 306 305 305 305 305 303 302 303
318 315 317 315 316 318 320 324 318 330 335 337 336 337 338 339 339 338 338 338 337 336 335 333 330 326 322 316 313 311 311 311 310 309 308 308 308 309 308 309 307 306 305 305 305 305 304 303 302
316 314 315 317 316 316 318 319 318 327 334 335 336 336 336 337 338 337 337 337 336 336 333 330 327 325 321 315 313 312 311 310 310 309 308 308 308 308 308 309 307 306 306 305 305 306 305 304 303
316 314 315 316 316 317 318 317 319 327 328 331 334 336 337 336 337 336 336 335 336 335 331 328 326 325 322 316 313 312 311 310 310 310 309 307 308 308 308 309 306 306 306 305 305 305 306 305 304
312 314 316 315 314 317 319 316 318 324 327 328 331 336 337 338 337 335 335 335 333 331 330 327 324 322 319 315 313 312 311 310 310 310 309 306 306 307 308 307 306 306 306 306 305 306 306 305 304
312 313 315 313 314 317 316 316 315 314 321 328 331 333 335 336 335 334 333 332 330 328 326 325 322 318 315 314 313 312 311 310 310 310 309 307 307 308 309 306 306 306 306 306 306 306 306 306 305
310 312 312 315 312 313 313 314 315 314 314 324 330 333 335 336 335 331 330 329 326 321 320 318 316 315 314 314 313 312 311 310 310 310 309 307 309 309 306 307 307 307 307 307 306 306 307 306 306
311 310 312 312 315 315 312 312 312 311 311 310 315 328 330 331 331 330 327 320 315 314 313 312 312 312 313 314 313 312 311 310 310 310 307 310 309 306 307 308 309 309 308 308 307 307 307 307 307
310 311 312 311 309 311 311 311 311 309 310 309 308 312 318 325 323 319 315 314 313 312 311 311 311 311 312 313 312 311 310 310 309 308 311 306 307 309 309 309 309 309 309 308 308 308 307 307 307
310 312 313 310 309 309 311 311 314 309 310 309 309 310 313 314 314 314 313 312 311 311 311 310 310 311 311 311 310 310 310 308 310 309 306 308 309 308 308 308 308 308 308 308 307 307 307 307 307
312 311 312 313 308 310 310 308 314 312 311 309 308 310 313 313 314 313 312 311 310 310 310 310 310 310 310 310 310 309 311 309 306 307 308 308 307 306 305 305 305 305 305 305 306 306 306 307 307
309 312 309 310 312 309 308 308 308 310 311 310 311 313 313 313 313 313 312 312 311 311 310 310 310 310 310 310 310 309 306 307 308 308 307 306 306 305 305 304 303 302 302 303 304 305 305 306 306
310 305 308 308 307 306 305 311 311 310 310 311 312 312 313 313 313 314 313 313 312 311 310 310 310 310 310 309 306 306 307 308 307 306 306 306 305 303 302 302 302 302 302 302 302 303 304 304 305
308 307 312 307 313 316 309 311 307 307 310 311 311 312 313 313 313 313 313 313 312 311 311 311 309 308 306 306 307 307 307 307 307 306 305 304 302 302 303 303 303 303 303 303 303 303 302 303 303
310 309 307 307 309 311 311 314 311 310 310 309 310 313 313 313 314 314 314 312 311 309 308 306 306 306 306 306 306 307 306 306 306 304 303 302 302 303 303 303 303 304 304 304 304 304 303 303 303
307 309 307 309 311 306 305 307 307 309 310 310 311 313 313 314 314 314 313 311 310 309 307 306 306 306 306 306 306 306 306 305 304 303 302 302 303 302 302 302 302 302 302 303 303 303 303 303 303
Wind_Speed
19 5 4 6 3 4 3 6 3 5 3 7 11 14 10 9 2 4 17 14 14 15 17 14 11 10 8 7 6 6 6 5 5 6 6 6 5 5 6 6 7 7 7 7 7 8 9 9 9
17 11 7 3 5 4 5 5 4 2 18 20 18 14 9 4 8 21 23 16 10 16 16 14 12 9 8 6 6 5 5 5 4 4 4 4 5 6 7 8 9 9 8 8 8 8 8 9 10
12 16 7 4 4 6 5 3 4 8 20 4 8 16 7 7 19 23 19 16 12 18 16 14 12 9 7 6 5 4 4 3 5 5 5 5 6 7 7 9 10 10 10 10 10 10 11 11 12
10 10 3 4 6 6 8 5 3 8 8 6 22 8 9 8 13 16 20 17 16 18 15 13 11 9 8 6 3 2 3 4 4 5 6 7 7 8 9 9 10 10 11 11 12 12 13 13 14
16 5 3 4 6 4 5 7 3 3 4 14 11 5 5 10 16 21 21 17 14 18 15 13 11 9 6 4 2 1 3 4 5 6 7 8 8 9 9 10 10 12 12 13 13 14 14 15 16
9 3 4 7 6 6 5 17 7 3 8 12 15 11 6 21 21 22 19 16 12 12 12 12 11 8 6 3 1 1 3 4 5 6 7 8 8 9 10 11 13 12 13 13 14 13 13 14 15
4 3 4 7 8 6 6 7 7 7 11 5 26 5 15 26 22 21 20 17 13 12 11 13 11 8 6 3 1 2 3 4 5 6 7 7 9 11 11 12 13 13 13 14 14 14 14 14 14
3 3 4 5 12 8 6 4 3 10 4 26 17 8 12 29 26 23 21 17 15 15 12 14 11 8 5 3 1 2 3 5 6 6 8 9 11 12 13 13 14 15 15 15 15 15 15 15 14
8 2 3 7 9 5 6 5 2 5 14 7 10 17 27 32 27 26 24 21 18 15 12 14 11 8 5 2 0 3 4 5 7 8 9 11 11 12 12 14 15 16 16 16 16 17 16 16 15
5 3 5 4 1 4 4 8 10 7 5 6 12 14 33 32 30 29 30 27 23 17 14 13 10 7 4 2 1 3 5 7 8 9 10 11 11 11 13 13 14 15 15 16 17 17 18 17 16
6 4 3 6 5 10 5 8 5 16 2 11 21 29 37 33 32 31 30 27 23 19 15 12 8 5 3 3 3 4 6 7 8 9 10 9 9 11 12 13 14 15 15 16 16 15 15 16 16
3 12 7 6 1 12 6 2 6 5 6 14 23 31 40 35 35 32 29 27 24 20 16 13 10 7 5 4 4 5 6 7 8 9 8 9 9 10 11 14 16 16 17 17 17 16 16 15 15
2 3 18 21 19 19 18 14 6 8 9 14 24 33 39 36 33 29 26 23 21 20 17 14 11 8 6 5 5 5 6 7 7 8 8 9 8 10 13 16 18 19 19 19 18 17 17 18 17
5 15 12 10 12 12 8 6 15 5 13 20 27 34 35 34 31 29 26 25 22 18 16 14 11 9 7 6 6 5 6 6 8 8 8 8 8 11 14 18 20 20 20 19 18 19 18 18 18
7 4 5 12 12 5 16 2 5 16 19 25 26 28 28 29 28 29 28 24 18 17 14 13 11 9 8 8 7 7 7 7 7 7 7 7 8 11 15 18 20 20 20 19 18 17 17 17 17
2 3 3 5 7 1 5 7 3 21 24 24 24 23 24 26 28 27 25 22 18 15 15 14 12 10 9 9 8 8 8 7 7 8 8 7 8 11 15 17 19 19 19 19 18 18 18 19 19
5 4 5 3 5 2 3 4 2 23 23 25 23 21 21 22 26 24 24 21 19 14 15 14 12 11 11 10 10 10 9 8 7 8 8 8 9 12 15 18 19 19 19 19 19 19 20 21 20
6 4 3 5 4 3 5 4 4 17 21 22 25 23 22 21 25 24 22 22 20 16 15 13 12 13 13 13 12 11 10 9 7 9 10 9 10 13 15 17 18 18 18 18 18 18 19 21 21
5 5 4 2 1 4 4 4 7 14 15 17 17 17 17 21 22 22 22 20 18 17 17 15 14 13 14 13 13 12 10 8 8 9 10 10 11 12 16 17 16 17 17 18 19 19 19 19 22
9 6 3 1 2 5 5 3 2 2 6 18 20 23 27 25 23 24 23 20 18 16 16 16 15 15 14 12 12 12 10 9 9 10 10 9 10 13 15 15 15 15 15 16 17 18 18 18 20
2 6 4 5 3 5 6 5 2 2 2 17 22 27 28 29 29 24 22 19 18 17 18 19 17 16 14 12 12 11 11 10 10 11 9 10 12 13 14 13 13 13 14 15 16 17 17 17 15
3 1 4 9 5 5 2 4 5 5 6 5 15 29 27 28 26 24 21 19 18 19 20 20 18 16 15 13 12 12 11 10 11 10 9 11 13 13 12 12 13 13 14 15 15 16 16 16 15
3 4 6 4 6 4 4 5 6 3 7 8 15 14 20 24 23 21 18 15 14 14 16 16 15 14 14 13 13 11 10 10 8 9 11 11 10 10 13 15 15 15 15 15 16 15 15 16 15
6 2 8 6 4 2 1 5 4 5 7 4 6 16 16 20 18 15 13 11 10 10 11 10 11 12 11 12 10 8 8 7 8 9 9 9 11 13 14 15 16 16 17 17 17 17 17 16 16
1 4 3 3 3 5 3 3 8 3 3 5 14 18 17 14 12 10 8 6 6 5 5 7 9 9 9 6 6 5 6 8 8 8 10 13 14 15 16 18 18 19 19 19 19 20 19 18 18
3 4 5 5 4 3 2 5 5 3 6 1 11 17 13 10 8 6 5 4 4 5 6 6 6 6 5 5 5 5 6 6 9 11 13 15 18 20 21 21 21 21 21 20 20 20 20 20 20
1 4 3 7 4 4 3 4 4 5 5 12 14 12 9 7 6 4 4 4 4 5 5 5 5 5 5 5 5 5 7 9 11 13 16 19 21 22 22 21 21 21 21 21 21 21 20 20 20
3 4 4 4 3 2 4 1 3 5 2 2 5 7 6 5 6 5 5 6 6 6 5 5 6 6 6 5 6 8 10 12 14 17 20 20 20 19 19 20 20 20 20 19 20 21 20 21 21
3 2 6 3 4 4 4 4 4 3 3 5 6 7 7 7 6 6 6 5 6 6 7 7 7 7 8 8 9 11 12 15 17 19 19 17 18 18 19 20 21 21 21 20 20 20 21 21 21
1 2 4 4 4 1 4 3 3 4 5 5 4 5 5 6 5 5 5 5 6 7 8 8 8 9 9 10 12 13 16 18 19 19 18 19 20 20 21 22 22 22 21 21 21 21 21 22 23
Wind_Direction
203 160 163 128 88 65 253 253 270 134 58 47 95 102 105 60 91 163 136 149 162 172 161 157 152 143 134 122 108 96 82 70 57 45 39 34 22 10 0 347 342 347 347 340 336 333 332 330 328
201 188 170 140 120 141 251 248 202 203 133 107 79 91 62 68 109 139 150 158 174 169 159 156 152 146 135 124 113 97 69 53 41 16 8 351 340 337 333 330 330 329 324 318 311 307 303 309 313
203 183 173 146 164 183 206 250 196 138 154 139 105 75 84 101 125 139 150 150 163 163 159 157 151 146 135 124 108 80 70 15 360 357 357 355 349 343 339 338 336 333 331 325 318 312 306 299 294
194 183 181 150 191 234 185 260 48 153 111 105 118 70 102 151 162 148 150 157 155 159 158 156 151 147 137 120 101 81 4 1 10 7 358 351 346 341 338 336 333 329 325 321 316 312 308 304 297
184 163 181 181 206 237 229 238 258 292 116 129 126 123 83 149 158 148 152 160 160 154 154 155 151 146 141 138 124 15 360 8 6 359 350 345 340 339 340 336 330 325 321 317 310 306 303 300 296
177 194 187 188 182 228 247 241 257 199 126 124 110 107 117 146 152 149 157 161 158 160 165 165 158 154 152 149 127 16 359 359 357 352 344 341 338 341 338 332 328 329 327 323 317 313 309 303 299
156 127 208 158 178 207 226 224 197 191 146 133 135 95 145 157 163 162 161 165 168 171 188 172 164 164 164 161 104 2 351 352 358 351 343 341 336 338 341 339 339 339 336 327 327 322 317 312 306
205 117 172 177 184 210 204 160 222 184 112 141 136 156 170 168 169 171 174 178 178 184 197 179 177 177 175 167 71 359 353 352 351 352 341 341 342 342 345 346 345 343 334 335 331 326 320 314 309
205 62 197 201 166 177 172 137 110 167 146 144 150 154 173 166 171 175 175 179 183 184 191 188 182 177 181 190 2 350 349 353 356 350 349 345 347 348 345 346 345 339 338 336 333 329 325 320 316
174 147 211 227 259 175 184 142 148 123 134 81 124 151 164 170 178 181 182 182 188 189 183 184 181 184 200 237 339 344 346 354 352 352 351 349 351 349 350 346 342 337 338 337 334 330 326 324 319
190 194 245 268 317 303 190 165 146 139 116 170 155 159 166 175 183 188 189 193 194 192 194 191 193 199 234 282 321 337 346 347 352 350 353 352 357 356 353 346 346 349 345 341 338 333 331 329 323
182 223 210 268 72 336 264 209 134 134 149 165 170 168 171 179 185 190 193 191 193 195 197 196 198 209 235 263 303 334 337 347 350 346 357 359 1 1 359 2 360 353 349 348 343 340 339 338 332
178 210 239 257 277 295 291 219 168 152 159 172 170 170 178 182 187 192 197 199 204 203 199 200 203 215 235 259 288 320 331 339 344 355 357 359 2 8 8 5 0 355 352 347 346 342 340 341 340
330 239 237 275 287 270 233 233 172 161 158 160 171 177 184 189 194 198 202 204 207 205 202 205 207 218 237 257 279 306 320 334 348 349 348 351 1 4 4 2 359 357 353 351 348 345 344 343 342
252 231 290 274 280 260 194 168 188 154 168 161 173 179 185 195 196 205 209 210 212 211 210 212 214 226 241 257 274 293 311 325 336 339 338 342 351 356 356 356 356 354 351 349 347 346 344 343 343
147 121 123 267 220 200 146 204 208 164 166 168 171 183 190 195 196 204 215 216 221 221 221 220 221 233 245 254 268 283 294 307 323 329 328 329 336 344 347 349 349 351 351 347 347 347 349 349 350
175 177 184 241 183 201 113 159 182 171 179 172 184 183 191 184 199 204 212 215 220 225 222 224 229 238 248 254 265 270 282 299 312 317 322 321 322 331 337 342 344 346 347 346 346 350 350 351 356
159 193 171 194 198 65 89 114 145 182 185 179 182 183 187 187 196 202 213 212 218 229 228 229 236 244 250 253 260 265 274 288 302 315 318 312 311 322 331 336 339 341 344 344 342 346 353 353 356
167 151 134 262 144 93 117 135 176 186 184 181 185 183 195 200 198 206 205 214 224 226 234 238 243 247 251 256 261 262 269 280 296 308 310 307 310 319 324 331 337 339 341 342 341 344 350 354 356
231 152 144 349 142 91 126 90 13 160 218 193 183 190 201 196 193 197 205 218 225 239 243 244 249 251 256 258 259 263 271 277 288 302 306 301 307 314 324 331 338 340 341 342 336 340 345 354 357
56 146 179 148 115 42 97 7 220 206 158 213 205 201 200 198 198 200 208 220 231 238 243 247 251 255 258 258 264 274 269 276 293 299 300 303 311 320 325 331 336 340 340 342 337 337 338 340 356
78 87 146 140 98 150 93 227 243 228 187 195 194 213 208 204 203 204 207 218 233 239 239 242 245 250 252 259 265 269 268 275 290 298 305 313 316 319 324 327 327 328 328 330 331 330 329 329 336
95 353 139 94 88 97 341 64 256 162 223 207 203 186 202 198 192 197 209 228 242 238 235 238 241 242 246 254 263 260 265 282 293 302 308 311 313 316 319 318 317 316 314 315 317 318 317 317 318
6 58 46 47 84 49 278 115 270 199 203 216 194 194 178 175 186 205 222 230 235 238 237 235 234 234 238 246 252 263 278 288 298 299 302 305 308 309 308 307 307 306 307 307 307 305 305 304 304
128 58 49 22 20 201 317 58 246 281 319 241 195 185 177 179 189 205 211 220 232 236 225 213 214 221 227 230 243 259 280 289 294 299 303 305 306 308 307 306 304 304 302 301 300 298 296 297 295
150 159 149 168 160 229 1 226 262 336 354 106 182 160 161 170 183 194 206 223 230 217 206 198 196 200 208 226 254 271 277 291 304 306 308 309 310 309 309 307 306 306 304 301 297 293 292 291 289
234 58 196 102 35 63 223 281 340 346 25 76 113 143 157 177 193 203 221 227 235 224 213 204 205 212 230 247 259 276 289 294 295 299 303 305 306 307 307 307 307 308 307 304 300 296 294 289 286
108 172 58 21 130 213 282 256 229 334 329 104 128 153 166 182 197 212 228 242 238 232 231 233 232 235 242 254 267 280 288 291 294 299 301 303 305 307 307 308 308 308 307 304 300 299 294 289 287
10 51 57 101 147 176 162 278 234 269 282 185 193 193 196 198 205 225 234 241 238 243 250 245 242 250 259 266 278 285 289 294 299 301 303 304 307 308 307 308 308 308 307 305 301 299 297 292 289
2 95 135 137 213 164 136 279 297 310 30 122 168 181 186 194 208 228 242 259 274 278 273 265 265 267 272 277 283 291 297 300 301 304 305 308 309 309 310 310 310 309 307 305 302 299 297 295 293